Whiteman AFB, MO

10:39 PM CDT on May 21, 2018 (GMT -0500)
Whiteman Air Force Base

Weather History for KSZL - January, 2013

Change the Weather History Date:

Sunday, January 6, 2013

  Actual Average Record
Temperature  
Mean Temperature 30 °F -  
Max Temperature 38 °F 37 °F 68 °F (2008)
Min Temperature 23 °F 21 °F -9 °F (2014)
Degree Days  
Heating Degree Days 34    
Moisture  
Dew Point 22 °F    
Average Humidity 77    
Maximum Humidity 97    
Minimum Humidity 51    
Precipitation  
Precipitation 0.00 in - - ()
Sea Level Pressure  
Sea Level Pressure 30.33 in    
Wind  
Wind Speed 9 mph (West)    
Max Wind Speed 20 mph    
Max Gust Speed 25 mph    
Visibility 10 miles    
Events      
Averages and records for this station are not official NWS values.
T = Trace of Precipitation, MM = Missing Value Source: NWS Daily Summary

Daily Weather History Graph

Daily Weather History Graph

Search for Another Location

Airport or City:

Astronomy

Jan. 06, 2013 Rise Set
Actual Time 7:32 AM CST 5:08 PM CST
Civil Twilight 7:03 AM CST 5:37 PM CST
Nautical Twilight 6:29 AM CST 6:10 PM CST
Astronomical Twilight 5:57 AM CST 6:42 PM CST
Moon 1:49 AM CST (1/6) 12:34 PM CST (1/6)
Length of Visible Light 10h 34m
Length of Day
9h 35m
Waning Crescent, 33% of the Moon is Illuminated
Jan 6
Waning Crescent
Jan 11
New
Jan 18
First Quarter
Jan 26
Full
Feb 3
Last Quarter

Hourly Weather History & Observations

Time (CST) Temp. Windchill Dew Point Humidity Pressure Visibility Wind Dir Wind Speed Gust Speed Precip Events Conditions
12:55 AM 28.9 °F 21.9 °F 28.2 °F 97% 30.18 in 10.0 mi West 6.9 mph - N/A   Clear
1:55 AM 28.6 °F 20.7 °F 26.4 °F 92% 30.19 in 10.0 mi West 8.1 mph - N/A   Clear
2:55 AM 29.1 °F 19.4 °F 25.3 °F 86% 30.21 in 10.0 mi WNW 11.5 mph - N/A   Clear
3:55 AM 27.3 °F 18.4 °F 22.6 °F 83% 30.22 in 10.0 mi NW 9.2 mph - N/A   Clear
4:14 AM 26.6 °F 18.2 °F 21.2 °F 80% 30.23 in 10.0 mi NW 8.1 mph - N/A   Mostly Cloudy
4:55 AM 28.0 °F 18.1 °F 22.5 °F 80% 30.25 in 10.0 mi NW 11.5 mph - N/A   Overcast
5:55 AM 26.8 °F 15.9 °F 21.9 °F 82% 30.27 in 10.0 mi NW 12.7 mph - N/A   Scattered Clouds
6:55 AM 25.0 °F 10.9 °F 20.8 °F 84% 30.30 in 10.0 mi NNW 19.6 mph 25.3 mph N/A   Mostly Cloudy
7:30 AM 24.8 °F 13.4 °F 21.2 °F 86% 30.33 in 10.0 mi NW 12.7 mph 20.7 mph N/A   Overcast
7:55 AM 24.1 °F 12.5 °F 20.1 °F 85% 30.34 in 10.0 mi NW 12.7 mph - N/A   Overcast
8:55 AM 23.0 °F 12.4 °F 19.6 °F 87% 30.36 in 10.0 mi NW 10.4 mph - N/A   Scattered Clouds
9:31 AM 24.8 °F 13.4 °F 19.4 °F 80% 30.38 in 10.0 mi NW 12.7 mph - N/A   Mostly Cloudy
9:42 AM 24.8 °F 15.3 °F 19.4 °F 80% 30.38 in 10.0 mi NNW 9.2 mph - N/A   Scattered Clouds
9:55 AM 25.9 °F 16.0 °F 20.5 °F 80% 30.39 in 10.0 mi NNW 10.4 mph - N/A   Scattered Clouds
10:55 AM 28.0 °F 19.3 °F 21.0 °F 75% 30.40 in 10.0 mi NNW 9.2 mph - N/A   Clear
11:55 AM 30.6 °F 23.8 °F 22.5 °F 72% 30.39 in 10.0 mi WNW 6.9 mph - N/A   Clear
12:55 PM 34.2 °F 27.5 °F 21.9 °F 61% 30.37 in 10.0 mi NW 8.1 mph - N/A   Clear
1:55 PM 36.5 °F 31.8 °F 22.1 °F 56% 30.36 in 10.0 mi West 5.8 mph - N/A   Clear
2:55 PM 38.1 °F 34.6 °F 21.9 °F 52% 30.36 in 10.0 mi WSW 4.6 mph - N/A   Clear
3:55 PM 38.3 °F 34.8 °F 21.7 °F 51% 30.36 in 10.0 mi WSW 4.6 mph - N/A   Clear
4:55 PM 35.6 °F 32.8 °F 21.7 °F 57% 30.36 in 10.0 mi WSW 3.5 mph - N/A   Clear
5:55 PM 30.0 °F 25.2 °F 22.1 °F 72% 30.37 in 10.0 mi SSW 4.6 mph - N/A   Clear
6:55 PM 29.5 °F 23.4 °F 21.4 °F 72% 30.39 in 10.0 mi SSW 5.8 mph - N/A   Clear
7:55 PM 29.1 °F 23.0 °F 21.6 °F 73% 30.38 in 10.0 mi South 5.8 mph - N/A   Clear
8:55 PM 27.1 °F 19.7 °F 22.1 °F 81% 30.38 in 10.0 mi South 6.9 mph - N/A   Clear
9:55 PM 26.1 °F 18.4 °F 21.9 °F 84% 30.37 in 10.0 mi South 6.9 mph - N/A   Clear
10:55 PM 25.5 °F 17.8 °F 22.1 °F 87% 30.36 in 10.0 mi South 6.9 mph - N/A   Clear
11:55 PM 25.5 °F 16.9 °F 21.6 °F 85% 30.35 in 10.0 mi South 8.1 mph - N/A   Clear